This is the latest recevied weather packets stored in our database for station/object KC5CAM-13. If no packets are shown the sender has not sent any weather packets the latest 10 day(s).
| Time | Temp. | Humidity | Pressure | Rain* | Wind** | Luminosity | Snow |
|---|---|---|---|---|---|---|---|
| 1788141267 | 93° F | 39% | 760.5 mmHg | 0 in | - | 0 W/m² | - |
| 1788140963 | 93° F | 40% | 760.4 mmHg | 0 in | - | 0 W/m² | - |
| 1788140662 | 93° F | 40% | 760.4 mmHg | 0 in | - | 0 W/m² | - |
| 1788140358 | 94° F | 39% | 760.3 mmHg | 0 in | - | 0 W/m² | - |
| 1788140054 | 94° F | 39% | 760.3 mmHg | 0 in | - | 0 W/m² | - |
| 1788139748 | 94° F | 38% | 760.3 mmHg | 0 in | - | 0 W/m² | - |
| 1788139443 | 95° F | 37% | 760.3 mmHg | 0 in | - | 0 W/m² | - |
| 1788139144 | 95° F | 37% | 760.3 mmHg | 0 in | - | 0 W/m² | - |
| 1788138844 | 95° F | 36% | 760.3 mmHg | 0 in | - | 0 W/m² | - |
| 1788138540 | 95° F | 36% | 760.1 mmHg | 0 in | - | 0 W/m² | - |
| 1788138239 | 95° F | 36% | 760 mmHg | 0 in | - | 0 W/m² | - |
| 1788137935 | 96° F | 36% | 760 mmHg | 0 in | - | 0 W/m² | - |
| 1788137631 | 96° F | 35% | 760.1 mmHg | 0 in | - | 3 W/m² | - |
| 1788137325 | 96° F | 35% | 759.9 mmHg | 0 in | - | 4 W/m² | - |
| 1788137022 | 96° F | 35% | 760 mmHg | 0 in | - | 7 W/m² | - |
| 1788136717 | 97° F | 35% | 760.1 mmHg | 0 in | - | 11 W/m² | - |
| 1788136414 | 97° F | 34% | 760.2 mmHg | 0 in | - | 16 W/m² | - |
| 1788136113 | 97° F | 33% | 760 mmHg | 0 in | - | 19 W/m² | - |
| 1788135811 | 97° F | 33% | 760.2 mmHg | 0 in | - | 21 W/m² | - |
| 1788135508 | 97° F | 33% | 760 mmHg | 0 in | - | 25 W/m² | - |
| 1788135202 | 97° F | 32% | 760 mmHg | 0 in | - | 28 W/m² | - |
| 1788134900 | 97° F | 32% | 760 mmHg | 0 in | - | 30 W/m² | - |
| 1788134600 | 98° F | 32% | 760.1 mmHg | 0 in | - | 33 W/m² | - |
| 1788134298 | 98° F | 32% | 760.2 mmHg | 0 in | - | 35 W/m² | - |
| 1788133993 | 98° F | 31% | 760.3 mmHg | 0 in | - | 37 W/m² | - |
* Rain latest hour (hover to see other rain measurements)
** Current wind speed in m/s (hover to see current wind gust speed)